User: anonymous   Login
Location: Stamford Observatory
(41.1241°N, 73.5498°W)
Time: 12:27:26
(UTC-04:00)
Language:

IRS-P3 - Orbit

View from above orbital plane
View from above orbital plane
View from above satellite
View from above satellite

Ground track
Ground track

The orbit data is extracted from the following two-line orbital elements,

1 23827U 96017A   16240.91376916 +.00000020 +00000-0 +28425-4 0  9997
2 23827 098.6935 176.0572 0003736 147.6137 212.5270 14.22466186060735
Epoch (UTC): 27 August 2016 21:55:49
Eccentricity: 0.0003736
inclination: 98.6935°
perigee height: 814 km
apogee height: 820 km
right ascension of ascending node: 176.0572°
argument of perigee: 147.6137°
revolutions per day: 14.22466186
mean anomaly at epoch: 212.5270°
orbit number at epoch: 6073

The dashed part of the orbit path shows where the satellite is in the earth's shadow,  

DLR